Погода в Вено

Федеративные Штаты Микронезии     7°27′49″N   151°50′46″E
темп.,
°C
ветер,
м/с
пор.,
м/с
влажн.,
%
обл.,
%
осадки,
мм/ч
давл.,
гПа
погр.,
м
1 марта, пн
пн101:00+28всв10127592 0.1 10091288
04:00+28всв9117583 0.3 10071163
07:00+28всв9107688 0.0 10101044
10:00+28всв9107891 0.1 10101091
13:00+28всв9107986 0.2 10081001
16:00+28св9107992 0.4 1007984
19:00+28всв10128069 1.8 10081003
22:00+28всв10117772 2.3 10101005
2 марта, вт
вт201:00+28всв9107984 0.0 1008982
04:00+27всв9108067 3.1 1008858
07:00+28всв9118020 2.6 1009905
10:00+28всв9107826 5.5 10101029
13:00+28всв9107667 0.4 10071041
16:00+28св787450 0.4 10071032
19:00+28св910790 0.0 1009961
22:00+28св897912 0.2 1010951
3 марта, ср
ср301:00+28всв89814 1.3 1009874
04:00+28всв78817 2.1 1008833
07:00+28всв9108112 0.6 1010884
10:00+28всв898022 0.8 1011964
13:00+28всв797797 0.3 10081077
16:00+28всв897796 0.4 1007940
19:00+28всв8107893 0.3 1008993
22:00+28всв9107760 1.0 10091064
4 марта, чт
чт401:00+28всв897685 0.0 10091007
04:00+28св9107892 0.1 1008994
07:00+28св9107799 0.0 10101066
10:00+28св897799 0.1 10101001
13:00+28св8978100 0.0 1008998
16:00+28св8978100 0.1 1007912
19:00+28св898180 0.0 1009879
22:00+28св898183 0.2 1009882
5 марта, пт
пт501:00+27св788299 2.3 1008758
04:00+27св678392 3.7 1008673
07:00+27св5580100 0.3 1009714
10:00+28всв4577100 1.3 1009766
13:00+28всв447381 0.1 1007809
16:00+29всв447259 0.8 1007631
19:00+28всв457598 3.0 1008409
22:00+28в567668 4.6 1009713